Location: Hackbridge
(51.3833°N, 0.1500°W)
Time: 02:08:19
(UTC+00:00)

Cosmos 2058 Rocket - Pass Details

Date: 13 October 2019
Orbit: 611 x 639 km, 82.5° (Epoch: 13 November)

Event Time Altitude Azimuth Distance (km) Brightness Sun altitude
Rises 18:56:26 0° 188° (S) 2,875 6.5 -17.0°
Reaches altitude 10° 18:58:39 10° 188° (S) 1,971 5.6 -17.3°
Maximum altitude 19:03:01 88° 106° (ESE) 621 2.9 -18.0°
Drops below altitude 10° 19:07:24 10° 11° (N) 1,981 5.6 -18.7°
Sets 19:09:38 0° 11° (NNE) 2,890 6.5 -19.0°
